When you browse on this site, cookies collect data to enhance your experience and personalize the content and advertising you see.
Visit our Privacy Policy to learn more. By continuing to use the site, you agree to this use of cookies and data.
  • In Latvia
  • List of Countries
  • For 7 days
  • Water Temperature
  • Satellite Maps
  • Weather Map
  • Weather Widgets
  • user-avatar
    Login

    Hourly Weather Kerns

    Today, 23 March, Saturday

    Time Temperature Precipitation Wind Pressure Humidity
    00:00 +26°C° 0.2 mm 4 mps 757 mmHg 98%
    01:00 +26°C° 0.2 mm 4 mps 757 mmHg 98%
    02:00 +26°C° 0.3 mm 4 mps 757 mmHg 97%
    03:00 +26°C° 0.3 mm 4 mps 757 mmHg 97%
    04:00 +26°C° 0 mm 4 mps 756 mmHg 97%
    05:00 +26°C° 0.2 mm 4 mps 757 mmHg 97%
    06:00 +26°C° 0.2 mm 3 mps 757 mmHg 97%
    07:00 +26°C° 0.2 mm 3 mps 757 mmHg 97%
    08:00 +27°C° 0.4 mm 3 mps 758 mmHg 93%
    09:00 +28°C° 0.4 mm 3 mps 758 mmHg 90%
    10:00 +30°C° 0.4 mm 3 mps 758 mmHg 86%
    11:00 +30°C° 1 mm 3 mps 758 mmHg 85%
    12:00 +30°C° 1 mm 3 mps 758 mmHg 84%
    13:00 +31°C° 1 mm 3 mps 758 mmHg 84%
    14:00 +30°C° 1.1 mm 3 mps 757 mmHg 85%
    15:00 +30°C° 1.1 mm 3 mps 757 mmHg 87%
    16:00 +30°C° 1.1 mm 3 mps 757 mmHg 89%
    17:00 +29°C° 0.5 mm 3 mps 757 mmHg 91%
    18:00 +28°C° 0.5 mm 2 mps 757 mmHg 94%
    19:00 +27°C° 0.5 mm 2 mps 757 mmHg 97%
    20:00 +27°C° 0.1 mm 2 mps 758 mmHg 97%
    21:00 +26°C° 0.1 mm 2 mps 758 mmHg 98%
    22:00 +26°C° 0.1 mm 2 mps 758 mmHg 98%
    23:00 +26°C° 0 mm 2 mps 758 mmHg 98%

    Tomorrow, 24 March, Sunday

    Time Temperature Precipitation Wind Pressure Humidity
    00:00 +26°C° 0 mm 2 mps 758 mmHg 98%
    01:00 +26°C° 0 mm 2 mps 758 mmHg 98%
    02:00 +26°C° 0.1 mm 2 mps 758 mmHg 98%
    03:00 +26°C° 0.1 mm 2 mps 757 mmHg 98%
    04:00 +26°C° 0.1 mm 2 mps 757 mmHg 98%
    05:00 +26°C° 0.1 mm 2 mps 757 mmHg 98%
    06:00 +26°C° 0.1 mm 2 mps 758 mmHg 98%
    07:00 +27°C° 0.1 mm 2 mps 758 mmHg 98%
    08:00 +28°C° 0.1 mm 2 mps 758 mmHg 91%
    09:00 +29°C° 0.1 mm 2 mps 759 mmHg 85%
    10:00 +31°C° 0.1 mm 3 mps 759 mmHg 79%
    11:00 +31°C° 0.2 mm 3 mps 758 mmHg 78%
    12:00 +33°C° 0.2 mm 3 mps 758 mmHg 77%
    13:00 +33°C° 0.2 mm 3 mps 758 mmHg 77%
    14:00 +31°C° 0.5 mm 3 mps 757 mmHg 80%
    15:00 +31°C° 0.5 mm 3 mps 757 mmHg 83%
    16:00 +30°C° 0.5 mm 3 mps 756 mmHg 86%
    17:00 +29°C° 0.1 mm 2 mps 757 mmHg 89%
    18:00 +28°C° 0.1 mm 2 mps 757 mmHg 92%
    19:00 +27°C° 0.1 mm 1 mps 758 mmHg 95%
    20:00 +27°C° 0 mm 1 mps 758 mmHg 95%
    21:00 +27°C° 0 mm 1 mps 759 mmHg 96%
    22:00 +27°C° 0 mm 1 mps 759 mmHg 97%
    23:00 +26°C° 0 mm 1 mps 759 mmHg 97%

    Day after tomorrow, 25 March, Monday

    Time Temperature Precipitation Wind Pressure Humidity
    00:00 +26°C° 0 mm 1 mps 759 mmHg 97%
    01:00 +26°C° 0 mm 1 mps 759 mmHg 98%
    02:00 +26°C° 0 mm 1 mps 758 mmHg 98%
    03:00 +26°C° 0 mm 1 mps 758 mmHg 98%
    04:00 +26°C° 0 mm 1 mps 758 mmHg 98%
    05:00 +26°C° 0 mm 1 mps 758 mmHg 97%
    06:00 +26°C° 0 mm 2 mps 758 mmHg 97%
    07:00 +26°C° 0 mm 2 mps 758 mmHg 97%
    08:00 +28°C° 0.1 mm 2 mps 759 mmHg 90%
    09:00 +29°C° 0.1 mm 2 mps 759 mmHg 83%
    10:00 +31°C° 0.1 mm 2 mps 759 mmHg 76%
    11:00 +32°C° 0 mm 2 mps 759 mmHg 73%
    12:00 +32°C° 0 mm 2 mps 758 mmHg 69%
    13:00 +34°C° 0 mm 3 mps 758 mmHg 66%
    14:00 +34°C° 0.1 mm 3 mps 758 mmHg 69%
    15:00 +33°C° 0.1 mm 3 mps 757 mmHg 72%
    16:00 +31°C° 0.1 mm 3 mps 757 mmHg 75%
    17:00 +30°C° 0.1 mm 2 mps 757 mmHg 82%
    18:00 +29°C° 0.1 mm 2 mps 758 mmHg 88%
    19:00 +28°C° 0.1 mm 1 mps 758 mmHg 95%
    20:00 +27°C° 0 mm 1 mps 759 mmHg 95%
    21:00 +27°C° 0 mm 1 mps 759 mmHg 96%
    22:00 +27°C° 0 mm 1 mps 760 mmHg 97%
    23:00 +27°C° 0 mm 1 mps 760 mmHg 97%

    26 March, Tuesday

    Time Temperature Precipitation Wind Pressure Humidity
    00:00 +27°C° 0 mm 1 mps 759 mmHg 97%
    01:00 +26°C° 0 mm 1 mps 759 mmHg 97%
    02:00 +26°C° 0 mm 1 mps 759 mmHg 98%
    03:00 +26°C° 0 mm 1 mps 758 mmHg 98%
    04:00 +26°C° 0 mm 1 mps 758 mmHg 98%
    05:00 +26°C° 0 mm 1 mps 758 mmHg 98%
    06:00 +26°C° 0 mm 1 mps 759 mmHg 97%
    07:00 +26°C° 0 mm 1 mps 759 mmHg 96%
    08:00 +28°C° 0 mm 1 mps 760 mmHg 87%
    09:00 +30°C° 0 mm 1 mps 760 mmHg 77%
    10:00 +32°C° 0 mm 2 mps 760 mmHg 68%
    11:00 +34°C° 0 mm 2 mps 759 mmHg 66%
    12:00 +34°C° 0 mm 2 mps 759 mmHg 64%
    13:00 +35°C° 0 mm 2 mps 758 mmHg 62%
    14:00 +34°C° 0 mm 3 mps 757 mmHg 65%
    15:00 +34°C° 0 mm 3 mps 757 mmHg 68%
    16:00 +33°C° 0 mm 3 mps 756 mmHg 71%
    17:00 +31°C° 0 mm 2 mps 757 mmHg 79%
    18:00 +29°C° 0 mm 2 mps 757 mmHg 87%
    19:00 +28°C° 0 mm 2 mps 758 mmHg 95%
    20:00 +27°C° 0 mm 2 mps 759 mmHg 95%
    21:00 +27°C° 0 mm 1 mps 759 mmHg 96%
    22:00 +27°C° 0 mm 1 mps 760 mmHg 97%
    23:00 +27°C° 0 mm 1 mps 759 mmHg 97%

    27 March, Wednesday

    Time Temperature Precipitation Wind Pressure Humidity
    00:00 +27°C° 0 mm 1 mps 759 mmHg 97%
    01:00 +26°C° 0 mm 1 mps 759 mmHg 98%
    02:00 +26°C° 0 mm 1 mps 758 mmHg 98%
    03:00 +26°C° 0 mm 1 mps 758 mmHg 98%
    04:00 +26°C° 0 mm 1 mps 757 mmHg 98%
    05:00 +26°C° 0 mm 1 mps 758 mmHg 98%
    06:00 +26°C° 0 mm 1 mps 758 mmHg 97%
    07:00 +26°C° 0 mm 1 mps 759 mmHg 97%
    08:00 +28°C° 0 mm 1 mps 759 mmHg 88%
    09:00 +30°C° 0 mm 2 mps 759 mmHg 80%
    10:00 +32°C° 0 mm 2 mps 759 mmHg 71%
    11:00 +32°C° 0.3 mm 2 mps 759 mmHg 72%
    12:00 +32°C° 0.3 mm 2 mps 758 mmHg 74%
    13:00 +33°C° 0.3 mm 3 mps 757 mmHg 75%
    14:00 +32°C° 0.3 mm 2 mps 757 mmHg 77%
    15:00 +31°C° 0.3 mm 2 mps 756 mmHg 79%
    16:00 +31°C° 0.3 mm 2 mps 756 mmHg 81%
    17:00 +30°C° 0.1 mm 2 mps 756 mmHg 85%
    18:00 +29°C° 0.1 mm 2 mps 757 mmHg 90%
    19:00 +27°C° 0.1 mm 2 mps 757 mmHg 94%
    20:00 +27°C° 0 mm 2 mps 758 mmHg 95%
    21:00 +27°C° 0 mm 2 mps 758 mmHg 96%
    22:00 +27°C° 0 mm 2 mps 759 mmHg 96%
    23:00 +26°C° 0.1 mm 1 mps 758 mmHg 96%

    28 March, Thursday

    Time Temperature Precipitation Wind Pressure Humidity
    00:00 +26°C° 0.1 mm 1 mps 758 mmHg 97%
    01:00 +26°C° 0.1 mm 1 mps 757 mmHg 97%
    02:00 +26°C° 0.1 mm 1 mps 757 mmHg 97%
    03:00 +26°C° 0.1 mm 1 mps 757 mmHg 98%
    04:00 +24°C° 0.1 mm 0 mps 757 mmHg 98%
    05:00 +24°C° 0 mm 0 mps 757 mmHg 98%
    06:00 +24°C° 0 mm 0 mps 757 mmHg 97%
    07:00 +26°C° 0 mm 1 mps 758 mmHg 97%
    08:00 +28°C° 0 mm 1 mps 758 mmHg 88%
    09:00 +30°C° 0 mm 1 mps 758 mmHg 78%
    10:00 +32°C° 0 mm 1 mps 758 mmHg 68%
    11:00 +33°C° 0 mm 1 mps 757 mmHg 65%
    12:00 +34°C° 0 mm 2 mps 756 mmHg 62%
    13:00 +35°C° 0 mm 2 mps 756 mmHg 59%
    14:00 +34°C° 0 mm 2 mps 755 mmHg 62%
    15:00 +34°C° 0 mm 2 mps 755 mmHg 65%
    16:00 +32°C° 0 mm 2 mps 754 mmHg 68%
    17:00 +30°C° 0 mm 2 mps 755 mmHg 76%
    18:00 +29°C° 0 mm 1 mps 755 mmHg 84%
    19:00 +27°C° 0 mm 1 mps 756 mmHg 92%
    20:00 +27°C° 0 mm 1 mps 756 mmHg 93%
    21:00 +24°C° 0 mm 0 mps 757 mmHg 94%
    22:00 +24°C° 0 mm 0 mps 757 mmHg 95%
    23:00 +24°C° 0 mm 0 mps 757 mmHg 96%
    Show more